Terminal Aerodrome Forecast
Issued by NWS

Home | Current Version | Previous Version | Text Only | Print | Product List | Glossary Off
Versions: 1 2 3 4 5 6 7 8 9 10 11 12 13 14 15 16 17 18 19 20 21 22 23 24

000
FTUS43 KBIS 191127
TAFMOT
TAF
KMOT 191127Z 1912/2012 08008KT P6SM FEW007 OVC110
     FM191600 09011KT P6SM BKN150
     FM191900 11009KT P6SM SCT250
     FM200500 VRB03KT P6SM SCT120 BKN200
     FM200800 26004KT P6SM -RA BKN070 OVC100=

USA.gov is the U.S. government's official web portal to all federal, state and local government web resources and services.